Time,TemperatureF,DewpointF,PressureIn,WindDirection,WindDirectionDegrees,WindSpeedMPH,WindSpeedGustMPH,Humidity,HourlyPrecipIn,Conditions,Clouds,dailyrainin,SoftwareType,DateUTC
2013-02-19 00:03:00,25.4,20.7,30.13,NW,316,0.0,0.0,82,0.00,,,-99.99,Meteorologica,2013-02-19 06:03:00,
2013-02-19 00:08:00,25.6,20.8,30.13,NW,316,0.0,0.0,81,0.00,,,-99.99,Meteorologica,2013-02-19 06:08:00,
2013-02-19 00:13:00,25.8,20.8,30.14,NW,316,0.0,0.0,81,0.00,,,-99.99,Meteorologica,2013-02-19 06:13:00,
2013-02-19 00:18:00,26.0,20.9,30.14,WNW,301,3.2,4.9,80,0.00,,,-99.99,Meteorologica,2013-02-19 06:18:00,
2013-02-19 00:23:00,25.9,20.8,30.13,West,265,1.5,4.3,80,0.00,,,-99.99,Meteorologica,2013-02-19 06:23:00,
2013-02-19 00:28:00,25.8,20.8,30.14,WNW,298,2.8,6.3,81,0.00,,,-99.99,Meteorologica,2013-02-19 06:28:00,
2013-02-19 00:34:00,25.9,21.0,30.14,WNW,295,0.0,0.0,81,0.00,,,-99.99,Meteorologica,2013-02-19 06:34:00,
2013-02-19 00:39:00,25.8,20.9,30.14,WNW,295,0.0,0.0,81,0.00,,,-99.99,Meteorologica,2013-02-19 06:39:00,
2013-02-19 00:44:00,25.8,20.8,30.15,WNW,295,0.0,0.0,81,0.00,,,-99.99,Meteorologica,2013-02-19 06:44:00,
2013-02-19 00:49:00,25.7,20.8,30.15,WNW,295,0.0,0.0,81,0.00,,,-99.99,Meteorologica,2013-02-19 06:49:00,
2013-02-19 00:54:00,26.1,21.0,30.15,West,269,0.0,4.6,80,0.00,,,-99.99,Meteorologica,2013-02-19 06:54:00,
2013-02-19 00:59:00,26.1,21.0,30.15,West,269,0.0,0.0,80,0.00,,,-99.99,Meteorologica,2013-02-19 06:59:00,
2013-02-19 01:04:00,26.2,21.1,30.15,West,269,0.0,0.0,80,0.00,,,-99.99,Meteorologica,2013-02-19 07:04:00,
2013-02-19 01:09:00,25.7,20.7,30.15,West,269,0.0,0.0,81,0.00,,,-99.99,Meteorologica,2013-02-19 07:09:00,
2013-02-19 01:14:00,25.5,20.6,30.16,West,271,0.6,4.3,81,0.00,,,-99.99,Meteorologica,2013-02-19 07:14:00,
2013-02-19 01:19:00,25.4,20.6,30.16,North,359,0.0,0.0,82,0.00,,,-99.99,Meteorologica,2013-02-19 07:19:00,
2013-02-19 01:24:00,25.1,20.3,30.15,NNW,333,0.0,0.0,81,0.00,,,-99.99,Meteorologica,2013-02-19 07:24:00,
2013-02-19 01:29:00,25.0,20.3,30.15,WNW,302,0.0,2.9,82,0.00,,,-99.99,Meteorologica,2013-02-19 07:29:00,
2013-02-19 01:34:00,24.9,20.2,30.15,WNW,302,0.0,0.0,82,0.00,,,-99.99,Meteorologica,2013-02-19 07:34:00,
2013-02-19 01:39:00,24.6,20.1,30.16,WNW,285,0.0,2.5,82,0.00,,,-99.99,Meteorologica,2013-02-19 07:39:00,
2013-02-19 01:44:00,24.6,20.3,30.17,NW,306,0.0,0.0,83,0.00,,,-99.99,Meteorologica,2013-02-19 07:44:00,
2013-02-19 01:49:00,24.7,20.4,30.16,NW,306,0.0,0.0,83,0.00,,,-99.99,Meteorologica,2013-02-19 07:49:00,
2013-02-19 01:54:00,25.0,20.5,30.16,North,10,4.0,6.6,82,0.00,,,-99.99,Meteorologica,2013-02-19 07:54:00,
2013-02-19 01:59:00,25.3,20.6,30.16,NNW,335,4.3,6.7,82,0.00,,,-99.99,Meteorologica,2013-02-19 07:59:00,
2013-02-19 02:04:00,25.6,20.8,30.16,NNW,332,3.9,5.6,81,0.00,,,-99.99,Meteorologica,2013-02-19 08:04:00,
2013-02-19 02:09:00,25.9,20.8,30.17,West,263,0.0,0.0,80,0.00,,,-99.99,Meteorologica,2013-02-19 08:09:00,
2013-02-19 02:14:00,26.1,20.9,30.17,WNW,296,1.5,5.5,80,0.00,,,-99.99,Meteorologica,2013-02-19 08:14:00,
2013-02-19 02:19:00,26.1,21.0,30.17,NW,326,1.6,5.6,80,0.00,,,-99.99,Meteorologica,2013-02-19 08:19:00,
2013-02-19 02:24:00,26.2,21.2,30.17,NW,324,0.0,6.5,81,0.00,,,-99.99,Meteorologica,2013-02-19 08:24:00,
2013-02-19 02:29:00,26.0,21.3,30.17,NW,310,1.7,4.6,82,0.00,,,-99.99,Meteorologica,2013-02-19 08:29:00,
2013-02-19 02:34:00,25.8,21.2,30.17,NNW,342,4.8,6.2,82,0.00,,,-99.99,Meteorologica,2013-02-19 08:34:00,
2013-02-19 02:39:00,25.5,21.0,30.17,NNW,345,5.2,6.5,82,0.00,,,-99.99,Meteorologica,2013-02-19 08:39:00,
2013-02-19 02:44:00,25.4,20.9,30.17,NNW,344,5.4,7.2,82,0.00,,,-99.99,Meteorologica,2013-02-19 08:44:00,
2013-02-19 02:49:00,25.3,20.8,30.17,North,357,5.1,7.1,82,0.00,,,-99.99,Meteorologica,2013-02-19 08:49:00,
2013-02-19 02:54:00,25.3,20.8,30.17,NNW,348,4.9,6.6,82,0.00,,,-99.99,Meteorologica,2013-02-19 08:54:00,
2013-02-19 02:59:00,25.4,20.9,30.17,NW,313,2.0,6.3,82,0.00,,,-99.99,Meteorologica,2013-02-19 08:59:00,
2013-02-19 03:04:00,25.2,20.8,30.17,NNW,328,0.0,0.0,83,0.00,,,-99.99,Meteorologica,2013-02-19 09:04:00,
2013-02-19 03:09:00,25.1,20.7,30.17,West,279,0.1,4.8,83,0.00,,,-99.99,Meteorologica,2013-02-19 09:09:00,
2013-02-19 03:14:00,25.0,20.6,30.17,NNW,328,2.1,6.4,83,0.00,,,-99.99,Meteorologica,2013-02-19 09:14:00,
2013-02-19 03:19:00,25.0,20.4,30.18,SE,132,4.9,8.2,82,0.00,,,-99.99,Meteorologica,2013-02-19 09:19:00,
2013-02-19 03:24:00,25.1,20.4,30.17,NNW,342,4.9,6.9,82,0.00,,,-99.99,Meteorologica,2013-02-19 09:24:00,
2013-02-19 03:29:00,25.1,20.4,30.18,NW,311,4.9,7.3,82,0.00,,,-99.99,Meteorologica,2013-02-19 09:29:00,
2013-02-19 03:34:00,25.1,20.5,30.18,NW,324,0.6,6.1,82,0.00,,,-99.99,Meteorologica,2013-02-19 09:34:00,
2013-02-19 03:39:00,25.0,20.4,30.18,NNW,330,2.4,4.3,82,0.00,,,-99.99,Meteorologica,2013-02-19 09:39:00,
2013-02-19 03:44:00,24.9,20.4,30.19,NW,311,0.8,4.8,82,0.00,,,-99.99,Meteorologica,2013-02-19 09:44:00,
2013-02-19 03:49:00,24.8,20.3,30.19,NW,313,1.7,6.1,82,0.00,,,-99.99,Meteorologica,2013-02-19 09:49:00,
2013-02-19 03:54:00,24.9,20.5,30.19,WNW,289,3.5,5.6,83,0.00,,,-99.99,Meteorologica,2013-02-19 09:54:00,
2013-02-19 03:59:00,24.8,20.5,30.19,WNW,303,5.3,9.6,83,0.00,,,-99.99,Meteorologica,2013-02-19 09:59:00,
2013-02-19 04:04:00,24.7,20.5,30.19,NW,314,0.7,7.8,83,0.00,,,-99.99,Meteorologica,2013-02-19 10:04:00,
2013-02-19 04:09:00,24.7,20.7,30.20,NW,314,0.0,0.0,84,0.00,,,-99.99,Meteorologica,2013-02-19 10:09:00,
2013-02-19 04:14:00,24.5,20.6,30.20,NW,314,0.0,0.0,84,0.00,,,-99.99,Meteorologica,2013-02-19 10:14:00,
2013-02-19 04:19:00,24.5,20.5,30.19,NW,311,4.0,6.0,85,0.00,,,-99.99,Meteorologica,2013-02-19 10:19:00,
2013-02-19 04:24:00,24.2,20.5,30.19,NW,311,0.0,0.0,85,0.00,,,-99.99,Meteorologica,2013-02-19 10:24:00,
2013-02-19 04:29:00,24.0,20.4,30.19,NNW,347,4.3,7.4,86,0.00,,,-99.99,Meteorologica,2013-02-19 10:29:00,
2013-02-19 04:34:00,23.9,20.3,30.19,NNW,347,5.2,7.4,86,0.00,,,-99.99,Meteorologica,2013-02-19 10:34:00,
2013-02-19 04:39:00,23.9,20.3,30.19,NNW,336,4.0,5.3,86,0.00,,,-99.99,Meteorologica,2013-02-19 10:39:00,
2013-02-19 04:44:00,23.7,20.2,30.20,NNW,327,2.7,8.1,86,0.00,,,-99.99,Meteorologica,2013-02-19 10:44:00,
2013-02-19 04:49:00,23.6,20.2,30.20,NNW,338,6.6,10.7,86,0.00,,,-99.99,Meteorologica,2013-02-19 10:49:00,
2013-02-19 04:54:00,23.3,20.0,30.20,NNW,343,4.0,6.7,87,0.00,,,-99.99,Meteorologica,2013-02-19 10:54:00,
2013-02-19 04:59:00,23.1,19.8,30.21,WNW,285,2.3,6.9,87,0.00,,,-99.99,Meteorologica,2013-02-19 10:59:00,
2013-02-19 05:05:00,23.0,19.8,30.22,North,351,2.1,5.7,87,0.00,,,-99.99,Meteorologica,2013-02-19 11:05:00,
2013-02-19 05:10:00,22.9,19.8,30.22,WSW,239,4.6,8.9,87,0.00,,,-99.99,Meteorologica,2013-02-19 11:10:00,
2013-02-19 05:16:00,22.7,19.5,30.22,NNW,346,5.6,7.8,87,0.00,,,-99.99,Meteorologica,2013-02-19 11:16:00,
2013-02-19 05:21:00,22.7,19.4,30.23,NNW,327,4.9,6.6,87,0.00,,,-99.99,Meteorologica,2013-02-19 11:21:00,
2013-02-19 05:26:00,22.6,19.1,30.24,NW,318,4.5,8.9,86,0.00,,,-99.99,Meteorologica,2013-02-19 11:26:00,
2013-02-19 05:31:00,22.7,19.1,30.24,WNW,297,4.1,0.0,86,0.00,,,-99.99,Meteorologica,2013-02-19 11:31:00,
2013-02-19 05:36:00,22.7,19.0,30.24,NW,318,4.1,4.5,85,0.00,,,-99.99,Meteorologica,2013-02-19 11:36:00,
2013-02-19 05:41:00,22.6,19.0,30.25,NW,313,2.9,0.0,85,0.00,,,-99.99,Meteorologica,2013-02-19 11:41:00,
2013-02-19 05:46:00,22.3,19.0,30.25,WNW,285,0.0,0.0,87,0.00,,,-99.99,Meteorologica,2013-02-19 11:46:00,
2013-02-19 05:51:00,22.1,18.8,30.25,WNW,286,0.0,4.3,87,0.00,,,-99.99,Meteorologica,2013-02-19 11:51:00,
2013-02-19 05:56:00,22.0,18.8,30.26,SW,224,3.0,6.4,87,0.00,,,-99.99,Meteorologica,2013-02-19 11:56:00,
2013-02-19 06:02:00,21.9,18.6,30.26,West,279,0.0,0.0,87,0.00,,,-99.99,Meteorologica,2013-02-19 12:02:00,
2013-02-19 06:07:00,21.9,18.6,30.26,West,279,0.0,0.0,87,0.00,,,-99.99,Meteorologica,2013-02-19 12:07:00,
2013-02-19 06:12:00,21.6,18.5,30.26,NNW,347,0.0,0.0,87,0.00,,,-99.99,Meteorologica,2013-02-19 12:12:00,
2013-02-19 06:17:00,21.5,18.4,30.26,NNW,347,0.0,0.0,87,0.00,,,-99.99,Meteorologica,2013-02-19 12:17:00,
2013-02-19 06:22:00,21.3,18.3,30.26,North,359,0.0,0.0,88,0.00,,,-99.99,Meteorologica,2013-02-19 12:22:00,
2013-02-19 06:27:00,21.1,18.2,30.26,SE,127,3.9,5.6,88,0.00,,,-99.99,Meteorologica,2013-02-19 12:27:00,
2013-02-19 06:32:00,21.1,18.1,30.27,North,1,0.0,0.0,88,0.00,,,-99.99,Meteorologica,2013-02-19 12:32:00,
2013-02-19 06:37:00,20.9,18.0,30.27,NW,320,2.7,4.6,88,0.00,,,-99.99,Meteorologica,2013-02-19 12:37:00,
2013-02-19 06:42:00,20.8,17.8,30.27,NNW,342,3.7,5.6,88,0.00,,,-99.99,Meteorologica,2013-02-19 12:42:00,
2013-02-19 06:47:00,20.8,17.8,30.27,NNW,333,6.7,9.1,88,0.00,,,-99.99,Meteorologica,2013-02-19 12:47:00,
2013-02-19 06:52:00,20.7,17.7,30.27,North,359,0.0,0.0,88,0.00,,,-99.99,Meteorologica,2013-02-19 12:52:00,
2013-02-19 06:57:00,20.7,17.8,30.27,North,352,4.1,5.2,88,0.00,,,-99.99,Meteorologica,2013-02-19 12:57:00,
2013-02-19 07:02:00,20.5,17.6,30.28,North,355,0.0,0.0,88,0.00,,,-99.99,Meteorologica,2013-02-19 13:02:00,
2013-02-19 07:07:00,20.4,17.5,30.29,North,355,0.0,0.0,88,0.00,,,-99.99,Meteorologica,2013-02-19 13:07:00,
2013-02-19 07:12:00,20.2,17.3,30.29,North,355,0.0,0.0,88,0.00,,,-99.99,Meteorologica,2013-02-19 13:12:00,
2013-02-19 07:17:00,19.8,17.1,30.29,North,355,0.0,0.0,89,0.00,,,-99.99,Meteorologica,2013-02-19 13:17:00,
2013-02-19 07:22:00,19.6,17.0,30.29,North,355,0.0,0.0,89,0.00,,,-99.99,Meteorologica,2013-02-19 13:22:00,
2013-02-19 07:27:00,19.4,16.9,30.29,North,355,0.0,0.0,90,0.00,,,-99.99,Meteorologica,2013-02-19 13:27:00,
2013-02-19 07:32:00,19.3,16.8,30.29,North,355,0.0,0.0,90,0.00,,,-99.99,Meteorologica,2013-02-19 13:32:00,
2013-02-19 07:37:00,19.3,16.8,30.29,ESE,122,2.6,5.8,90,0.00,,,-99.99,Meteorologica,2013-02-19 13:37:00,
2013-02-19 07:42:00,19.3,16.8,30.30,NNW,342,3.9,6.3,89,0.00,,,-99.99,Meteorologica,2013-02-19 13:42:00,
2013-02-19 07:47:00,19.5,16.9,30.30,NW,321,5.2,7.1,89,0.00,,,-99.99,Meteorologica,2013-02-19 13:47:00,
2013-02-19 07:52:00,19.8,16.5,30.30,NW,308,5.8,9.7,86,0.00,,,-99.99,Meteorologica,2013-02-19 13:52:00,
2013-02-19 07:57:00,20.2,16.5,30.31,SE,140,6.3,9.5,85,0.00,,,-99.99,Meteorologica,2013-02-19 13:57:00,
2013-02-19 08:02:00,20.5,16.7,30.31,NNW,337,6.1,9.2,85,0.00,,,-99.99,Meteorologica,2013-02-19 14:02:00,
2013-02-19 08:07:00,20.8,16.5,30.31,NNW,335,6.5,9.4,83,0.00,,,-99.99,Meteorologica,2013-02-19 14:07:00,
2013-02-19 08:12:00,20.9,16.1,30.31,NW,324,6.4,12.2,81,0.00,,,-99.99,Meteorologica,2013-02-19 14:12:00,
2013-02-19 08:17:00,21.0,16.2,30.32,NNE,16,7.4,10.2,81,0.00,,,-99.99,Meteorologica,2013-02-19 14:17:00,
2013-02-19 08:22:00,21.2,16.5,30.32,NNW,348,5.3,7.4,81,0.00,,,-99.99,Meteorologica,2013-02-19 14:22:00,
2013-02-19 08:27:00,21.4,16.8,30.32,NW,321,4.8,6.9,82,0.00,,,-99.99,Meteorologica,2013-02-19 14:27:00,
2013-02-19 08:32:00,21.5,16.7,30.32,NE,35,8.2,14.7,81,0.00,,,-99.99,Meteorologica,2013-02-19 14:32:00,
2013-02-19 08:37:00,21.7,17.0,30.32,NNE,12,6.5,10.7,82,0.00,,,-99.99,Meteorologica,2013-02-19 14:37:00,
2013-02-19 08:42:00,21.9,17.2,30.32,NNW,330,6.2,10.0,82,0.00,,,-99.99,Meteorologica,2013-02-19 14:42:00,
2013-02-19 08:47:00,21.7,16.5,30.32,NNW,342,8.1,11.1,80,0.00,,,-99.99,Meteorologica,2013-02-19 14:47:00,
2013-02-19 08:52:00,21.8,16.4,30.32,North,357,8.1,12.8,79,0.00,,,-99.99,Meteorologica,2013-02-19 14:52:00,
2013-02-19 08:57:00,22.2,17.1,30.33,North,351,4.0,10.0,80,0.00,,,-99.99,Meteorologica,2013-02-19 14:57:00,
2013-02-19 09:02:00,22.0,15.4,30.33,NNW,329,8.7,12.2,75,0.00,,,-99.99,Meteorologica,2013-02-19 15:02:00,
2013-02-19 09:07:00,22.3,15.6,30.33,NNW,336,6.1,8.6,74,0.00,,,-99.99,Meteorologica,2013-02-19 15:07:00,
2013-02-19 09:12:00,22.6,15.9,30.33,North,11,5.9,8.3,75,0.00,,,-99.99,Meteorologica,2013-02-19 15:12:00,
2013-02-19 09:17:00,23.0,15.7,30.34,NNW,327,8.6,14.4,73,0.00,,,-99.99,Meteorologica,2013-02-19 15:17:00,
2013-02-19 09:22:00,22.7,14.8,30.34,NNW,335,9.5,14.1,71,0.00,,,-99.99,Meteorologica,2013-02-19 15:22:00,
2013-02-19 09:27:00,22.9,15.5,30.34,North,4,5.8,15.0,72,0.00,,,-99.99,Meteorologica,2013-02-19 15:27:00,
2013-02-19 09:32:00,23.1,15.6,30.34,NNW,334,8.0,11.7,72,0.00,,,-99.99,Meteorologica,2013-02-19 15:32:00,
2013-02-19 09:37:00,23.2,15.7,30.35,NNE,12,7.0,10.8,72,0.00,,,-99.99,Meteorologica,2013-02-19 15:37:00,
2013-02-19 09:42:00,23.3,15.6,30.35,NNE,18,7.4,10.0,71,0.00,,,-99.99,Meteorologica,2013-02-19 15:42:00,
2013-02-19 09:47:00,23.5,15.2,30.35,NW,325,7.7,10.5,70,0.00,,,-99.99,Meteorologica,2013-02-19 15:47:00,
2013-02-19 09:52:00,23.6,14.5,30.35,SE,133,9.0,15.8,67,0.00,,,-99.99,Meteorologica,2013-02-19 15:52:00,
2013-02-19 09:57:00,23.6,14.1,30.36,NNE,27,9.0,14.1,66,0.00,,,-99.99,Meteorologica,2013-02-19 15:57:00,
2013-02-19 10:02:00,24.1,15.3,30.35,NNW,348,4.5,8.6,68,0.00,,,-99.99,Meteorologica,2013-02-19 16:02:00,
2013-02-19 10:07:00,24.0,14.9,30.35,WSW,242,7.2,10.0,67,0.00,,,-99.99,Meteorologica,2013-02-19 16:07:00,
2013-02-19 10:12:00,24.3,16.0,30.35,NW,315,4.4,6.3,70,0.00,,,-99.99,Meteorologica,2013-02-19 16:12:00,
2013-02-19 10:17:00,24.8,15.3,30.35,NNW,339,7.2,12.8,66,0.00,,,-99.99,Meteorologica,2013-02-19 16:17:00,
2013-02-19 10:22:00,25.3,16.3,30.36,NW,323,5.1,8.4,68,0.00,,,-99.99,Meteorologica,2013-02-19 16:22:00,
2013-02-19 10:27:00,25.1,15.3,30.35,NNW,343,5.1,6.5,65,0.00,,,-99.99,Meteorologica,2013-02-19 16:27:00,
2013-02-19 10:32:00,25.3,14.5,30.37,NNE,17,10.5,13.8,63,0.00,,,-99.99,Meteorologica,2013-02-19 16:32:00,
2013-02-19 10:37:00,25.3,15.0,30.37,NW,319,5.5,9.0,64,0.00,,,-99.99,Meteorologica,2013-02-19 16:37:00,
2013-02-19 10:42:00,25.3,15.0,30.37,North,351,6.5,9.2,64,0.00,,,-99.99,Meteorologica,2013-02-19 16:42:00,
2013-02-19 10:47:00,25.4,14.8,30.36,SW,231,8.1,13.5,63,0.00,,,-99.99,Meteorologica,2013-02-19 16:47:00,
2013-02-19 10:52:00,25.9,15.6,30.36,NNW,341,5.7,9.8,64,0.00,,,-99.99,Meteorologica,2013-02-19 16:52:00,
2013-02-19 10:57:00,26.5,15.7,30.36,North,354,3.8,7.4,63,0.00,,,-99.99,Meteorologica,2013-02-19 16:57:00,
2013-02-19 11:02:00,26.9,14.8,30.37,NNW,345,4.7,7.1,59,0.00,,,-99.99,Meteorologica,2013-02-19 17:02:00,
2013-02-19 11:07:00,26.7,13.9,30.37,NNW,334,6.6,9.5,58,0.00,,,-99.99,Meteorologica,2013-02-19 17:07:00,
2013-02-19 11:12:00,26.7,14.8,30.37,SSW,213,6.5,10.7,61,0.00,,,-99.99,Meteorologica,2013-02-19 17:12:00,
2013-02-19 11:17:00,27.2,14.9,30.37,West,265,1.3,7.8,59,0.00,,,-99.99,Meteorologica,2013-02-19 17:17:00,
2013-02-19 11:22:00,27.4,14.1,30.37,NW,321,5.7,8.9,57,0.00,,,-99.99,Meteorologica,2013-02-19 17:22:00,
2013-02-19 11:27:00,26.7,13.6,30.37,North,359,6.4,9.5,57,0.00,,,-99.99,Meteorologica,2013-02-19 17:27:00,
2013-02-19 11:32:00,27.2,13.4,30.37,North,3,7.8,9.9,55,0.00,,,-99.99,Meteorologica,2013-02-19 17:32:00,
2013-02-19 11:37:00,27.0,13.0,30.37,NNW,344,6.4,9.9,55,0.00,,,-99.99,Meteorologica,2013-02-19 17:37:00,
2013-02-19 11:42:00,27.6,13.9,30.37,WNW,289,4.6,5.7,55,0.00,,,-99.99,Meteorologica,2013-02-19 17:42:00,
2013-02-19 11:47:00,28.2,13.9,30.38,North,11,4.9,9.6,54,0.00,,,-99.99,Meteorologica,2013-02-19 17:47:00,
2013-02-19 11:52:00,28.0,13.4,30.38,WNW,285,3.4,6.8,53,0.00,,,-99.99,Meteorologica,2013-02-19 17:52:00,
2013-02-19 11:57:00,28.2,14.1,30.37,NW,326,3.8,6.7,55,0.00,,,-99.99,Meteorologica,2013-02-19 17:57:00,
2013-02-19 12:02:00,28.1,13.5,30.37,NNE,13,8.1,10.7,53,0.00,,,-99.99,Meteorologica,2013-02-19 18:02:00,
2013-02-19 12:07:00,28.7,13.1,30.37,WSW,238,7.5,10.7,51,0.00,,,-99.99,Meteorologica,2013-02-19 18:07:00,
2013-02-19 12:12:00,29.0,13.2,30.37,North,351,4.9,10.5,51,0.00,,,-99.99,Meteorologica,2013-02-19 18:12:00,
2013-02-19 12:17:00,29.3,14.3,30.37,SE,135,6.6,9.4,53,0.00,,,-99.99,Meteorologica,2013-02-19 18:17:00,
2013-02-19 12:22:00,29.4,13.6,30.37,West,263,4.7,6.4,51,0.00,,,-99.99,Meteorologica,2013-02-19 18:22:00,
2013-02-19 12:27:00,29.3,14.3,30.37,North,359,6.0,9.9,53,0.00,,,-99.99,Meteorologica,2013-02-19 18:27:00,
2013-02-19 12:32:00,29.1,13.5,30.37,WSW,239,7.3,10.2,51,0.00,,,-99.99,Meteorologica,2013-02-19 18:32:00,
2013-02-19 12:37:00,30.0,14.1,30.37,SW,221,3.0,9.0,51,0.00,,,-99.99,Meteorologica,2013-02-19 18:37:00,
2013-02-19 12:42:00,30.2,13.6,30.37,NW,319,5.8,10.7,49,0.00,,,-99.99,Meteorologica,2013-02-19 18:42:00,
2013-02-19 12:47:00,30.0,13.1,30.36,WNW,295,3.5,9.9,49,0.00,,,-99.99,Meteorologica,2013-02-19 18:47:00,
2013-02-19 12:52:00,30.0,12.4,30.37,NNW,330,5.0,8.4,47,0.00,,,-99.99,Meteorologica,2013-02-19 18:52:00,
2013-02-19 12:57:00,29.7,12.5,30.36,NE,52,4.4,9.9,48,0.00,,,-99.99,Meteorologica,2013-02-19 18:57:00,
2013-02-19 13:02:00,29.8,11.3,30.36,North,356,9.1,12.5,45,0.00,,,-99.99,Meteorologica,2013-02-19 19:02:00,
2013-02-19 13:07:00,30.2,12.2,30.35,NW,310,5.3,8.7,46,0.00,,,-99.99,Meteorologica,2013-02-19 19:07:00,
2013-02-19 13:12:00,30.6,11.8,30.36,NNW,340,3.3,6.4,45,0.00,,,-99.99,Meteorologica,2013-02-19 19:12:00,
2013-02-19 13:17:00,31.0,12.2,30.35,SW,231,5.5,8.3,45,0.00,,,-99.99,Meteorologica,2013-02-19 19:17:00,
2013-02-19 13:22:00,30.1,12.3,30.35,West,277,5.1,7.3,47,0.00,,,-99.99,Meteorologica,2013-02-19 19:22:00,
2013-02-19 13:27:00,30.4,11.3,30.35,NNW,327,4.5,8.1,44,0.00,,,-99.99,Meteorologica,2013-02-19 19:27:00,
2013-02-19 13:32:00,30.4,12.9,30.35,WNW,284,5.3,7.6,47,0.00,,,-99.99,Meteorologica,2013-02-19 19:32:00,
2013-02-19 13:37:00,30.1,12.5,30.34,ESE,120,5.7,8.5,47,0.00,,,-99.99,Meteorologica,2013-02-19 19:37:00,
2013-02-19 13:42:00,31.1,11.9,30.35,WNW,299,2.8,6.8,44,0.00,,,-99.99,Meteorologica,2013-02-19 19:42:00,
2013-02-19 13:47:00,31.7,11.7,30.35,NW,322,4.7,8.7,43,0.00,,,-99.99,Meteorologica,2013-02-19 19:47:00,
2013-02-19 13:52:00,31.9,10.1,30.34,NNW,344,0.1,0.0,39,0.00,,,-99.99,Meteorologica,2013-02-19 19:52:00,
2013-02-19 13:57:00,32.1,10.2,30.33,NE,38,6.5,9.9,39,0.00,,,-99.99,Meteorologica,2013-02-19 19:57:00,
2013-02-19 14:02:00,32.3,11.9,30.34,NNE,12,1.6,5.1,42,0.00,,,-99.99,Meteorologica,2013-02-19 20:02:00,
2013-02-19 14:07:00,32.8,9.8,30.34,NNE,16,5.4,8.2,38,0.00,,,-99.99,Meteorologica,2013-02-19 20:07:00,
2013-02-19 14:12:00,32.7,10.2,30.34,NNW,332,4.5,10.4,38,0.00,,,-99.99,Meteorologica,2013-02-19 20:12:00,
2013-02-19 14:17:00,32.2,9.4,30.34,WNW,302,5.5,8.7,38,0.00,,,-99.99,Meteorologica,2013-02-19 20:17:00,
2013-02-19 14:22:00,31.5,9.2,30.33,WNW,294,7.6,10.0,39,0.00,,,-99.99,Meteorologica,2013-02-19 20:22:00,
2013-02-19 14:27:00,31.8,9.6,30.33,NW,319,4.3,6.6,39,0.00,,,-99.99,Meteorologica,2013-02-19 20:27:00,
2013-02-19 14:32:00,32.5,10.9,30.33,NNE,14,2.2,4.4,40,0.00,,,-99.99,Meteorologica,2013-02-19 20:32:00,
2013-02-19 14:37:00,32.9,9.6,30.32,SE,125,5.5,9.7,37,0.00,,,-99.99,Meteorologica,2013-02-19 20:37:00,
2013-02-19 14:42:00,33.3,10.6,30.32,NW,318,0.9,6.2,38,0.00,,,-99.99,Meteorologica,2013-02-19 20:42:00,
2013-02-19 14:47:00,33.7,11.3,30.32,WNW,303,3.4,6.1,39,0.00,,,-99.99,Meteorologica,2013-02-19 20:47:00,
2013-02-19 14:52:00,33.2,11.3,30.32,North,355,0.0,0.0,40,0.00,,,-99.99,Meteorologica,2013-02-19 20:52:00,
2013-02-19 14:57:00,33.3,9.6,30.33,North,350,5.9,8.3,37,0.00,,,-99.99,Meteorologica,2013-02-19 20:57:00,
2013-02-19 15:02:00,33.8,9.8,30.32,North,351,6.0,7.3,36,0.00,,,-99.99,Meteorologica,2013-02-19 21:02:00,
2013-02-19 15:07:00,33.9,9.7,30.32,NNE,22,3.9,8.1,36,0.00,,,-99.99,Meteorologica,2013-02-19 21:07:00,
2013-02-19 15:12:00,34.1,10.5,30.32,NW,320,4.2,6.0,37,0.00,,,-99.99,Meteorologica,2013-02-19 21:12:00,
2013-02-19 15:17:00,33.6,10.7,30.32,North,6,5.0,7.8,38,0.00,,,-99.99,Meteorologica,2013-02-19 21:17:00,
2013-02-19 15:22:00,33.7,8.3,30.34,NNE,25,7.5,9.9,34,0.00,,,-99.99,Meteorologica,2013-02-19 21:22:00,
2013-02-19 15:27:00,34.1,9.3,30.33,NNW,337,4.5,6.6,35,0.00,,,-99.99,Meteorologica,2013-02-19 21:27:00,
2013-02-19 15:32:00,34.0,9.4,30.33,NE,38,4.6,6.2,35,0.00,,,-99.99,Meteorologica,2013-02-19 21:32:00,
2013-02-19 15:37:00,33.7,9.1,30.32,WNW,287,1.6,8.0,35,0.00,,,-99.99,Meteorologica,2013-02-19 21:37:00,
2013-02-19 15:42:00,33.8,9.8,30.32,North,359,0.0,0.0,36,0.00,,,-99.99,Meteorologica,2013-02-19 21:42:00,
2013-02-19 15:47:00,34.0,8.7,30.32,NW,322,0.7,5.3,34,0.00,,,-99.99,Meteorologica,2013-02-19 21:47:00,
2013-02-19 15:52:00,33.9,8.5,30.32,NW,307,4.9,7.6,34,0.00,,,-99.99,Meteorologica,2013-02-19 21:52:00,
2013-02-19 15:57:00,33.9,9.3,30.32,NW,319,3.2,7.3,35,0.00,,,-99.99,Meteorologica,2013-02-19 21:57:00,
2013-02-19 16:02:00,34.0,9.1,30.32,North,5,0.4,0.0,35,0.00,,,-99.99,Meteorologica,2013-02-19 22:02:00,
2013-02-19 16:07:00,34.0,9.6,30.31,North,11,3.2,6.3,35,0.00,,,-99.99,Meteorologica,2013-02-19 22:07:00,
2013-02-19 16:12:00,34.1,9.2,30.32,NE,56,5.6,8.6,34,0.00,,,-99.99,Meteorologica,2013-02-19 22:12:00,
2013-02-19 16:18:00,34.0,8.9,30.31,NW,323,5.1,7.6,34,0.00,,,-99.99,Meteorologica,2013-02-19 22:18:00,
2013-02-19 16:23:00,34.0,8.8,30.31,North,359,1.7,7.6,34,0.00,,,-99.99,Meteorologica,2013-02-19 22:23:00,
2013-02-19 16:28:00,34.0,8.4,30.32,WSW,240,2.4,5.6,34,0.00,,,-99.99,Meteorologica,2013-02-19 22:28:00,
2013-02-19 16:33:00,33.8,8.4,30.31,North,5,5.5,10.7,34,0.00,,,-99.99,Meteorologica,2013-02-19 22:33:00,
2013-02-19 16:38:00,33.7,9.1,30.32,North,350,1.2,9.2,35,0.00,,,-99.99,Meteorologica,2013-02-19 22:38:00,
2013-02-19 16:43:00,33.5,9.1,30.32,NNE,16,0.0,0.0,36,0.00,,,-99.99,Meteorologica,2013-02-19 22:43:00,
2013-02-19 16:48:00,33.0,8.8,30.32,NNW,332,4.4,6.1,36,0.00,,,-99.99,Meteorologica,2013-02-19 22:48:00,
2013-02-19 16:53:00,32.7,9.4,30.31,West,276,0.0,0.0,37,0.00,,,-99.99,Meteorologica,2013-02-19 22:53:00,
2013-02-19 16:58:00,32.8,10.0,30.31,NNE,16,0.0,0.0,38,0.00,,,-99.99,Meteorologica,2013-02-19 22:58:00,
2013-02-19 17:03:00,32.8,9.3,30.31,NNW,328,0.0,5.4,37,0.00,,,-99.99,Meteorologica,2013-02-19 23:03:00,
2013-02-19 17:08:00,32.5,8.7,30.31,NE,36,5.1,8.2,36,0.00,,,-99.99,Meteorologica,2013-02-19 23:08:00,
2013-02-19 17:13:00,32.4,8.6,30.30,North,358,3.9,7.8,36,0.00,,,-99.99,Meteorologica,2013-02-19 23:13:00,
2013-02-19 17:18:00,32.0,9.2,30.30,NNE,27,4.1,8.2,38,0.00,,,-99.99,Meteorologica,2013-02-19 23:18:00,
2013-02-19 17:23:00,31.7,9.1,30.30,WNW,293,0.0,0.0,38,0.00,,,-99.99,Meteorologica,2013-02-19 23:23:00,
2013-02-19 17:28:00,31.5,9.7,30.30,WNW,293,0.0,0.0,39,0.00,,,-99.99,Meteorologica,2013-02-19 23:28:00,
2013-02-19 17:33:00,31.3,9.5,30.30,NW,320,1.5,5.0,39,0.00,,,-99.99,Meteorologica,2013-02-19 23:33:00,
2013-02-19 17:38:00,31.1,9.8,30.30,North,359,1.0,4.2,40,0.00,,,-99.99,Meteorologica,2013-02-19 23:38:00,
2013-02-19 17:43:00,30.6,9.1,30.31,North,5,0.0,0.0,40,0.00,,,-99.99,Meteorologica,2013-02-19 23:43:00,
2013-02-19 17:48:00,30.4,9.9,30.30,North,5,0.0,0.0,42,0.00,,,-99.99,Meteorologica,2013-02-19 23:48:00,
2013-02-19 17:53:00,30.0,10.0,30.31,North,5,0.0,0.0,43,0.00,,,-99.99,Meteorologica,2013-02-19 23:53:00,
2013-02-19 17:58:00,29.8,10.0,30.30,North,5,0.0,0.0,43,0.00,,,-99.99,Meteorologica,2013-02-19 23:58:00,
2013-02-19 18:03:00,29.5,10.2,30.30,North,5,0.0,0.0,44,0.00,,,-99.99,Meteorologica,2013-02-20 00:03:00,
2013-02-19 18:08:00,29.3,10.6,30.31,North,5,0.0,0.0,45,0.00,,,-99.99,Meteorologica,2013-02-20 00:08:00,
2013-02-19 18:13:00,28.9,10.4,30.30,North,5,0.0,0.0,45,0.00,,,-99.99,Meteorologica,2013-02-20 00:13:00,
2013-02-19 18:18:00,28.8,10.9,30.30,North,5,0.0,0.0,46,0.00,,,-99.99,Meteorologica,2013-02-20 00:18:00,
2013-02-19 18:23:00,28.4,10.8,30.30,North,5,0.0,0.0,47,0.00,,,-99.99,Meteorologica,2013-02-20 00:23:00,
2013-02-19 18:28:00,28.2,10.9,30.30,North,5,0.0,0.0,47,0.00,,,-99.99,Meteorologica,2013-02-20 00:28:00,
2013-02-19 18:33:00,28.0,11.3,30.31,North,5,0.0,0.0,49,0.00,,,-99.99,Meteorologica,2013-02-20 00:33:00,
2013-02-19 18:38:00,27.7,11.3,30.31,North,5,0.0,0.0,50,0.00,,,-99.99,Meteorologica,2013-02-20 00:38:00,
2013-02-19 18:43:00,27.2,11.3,30.31,North,5,0.0,0.0,50,0.00,,,-99.99,Meteorologica,2013-02-20 00:43:00,
2013-02-19 18:48:00,27.0,11.2,30.31,North,5,0.0,0.0,50,0.00,,,-99.99,Meteorologica,2013-02-20 00:48:00,
2013-02-19 18:53:00,26.7,11.1,30.31,North,5,0.0,0.0,51,0.00,,,-99.99,Meteorologica,2013-02-20 00:53:00,
2013-02-19 18:58:00,26.5,11.1,30.32,North,5,0.0,0.0,51,0.00,,,-99.99,Meteorologica,2013-02-20 00:58:00,
2013-02-19 19:03:00,26.2,11.3,30.32,North,5,0.0,0.0,52,0.00,,,-99.99,Meteorologica,2013-02-20 01:03:00,
2013-02-19 19:08:00,25.9,11.1,30.31,North,5,0.0,0.0,53,0.00,,,-99.99,Meteorologica,2013-02-20 01:08:00,
2013-02-19 19:13:00,25.7,11.4,30.31,North,5,0.0,0.0,54,0.00,,,-99.99,Meteorologica,2013-02-20 01:13:00,
2013-02-19 19:18:00,25.5,12.1,30.32,North,5,0.0,0.0,56,0.00,,,-99.99,Meteorologica,2013-02-20 01:18:00,
2013-02-19 19:23:00,25.3,11.7,30.32,North,5,0.0,0.0,55,0.00,,,-99.99,Meteorologica,2013-02-20 01:23:00,
2013-02-19 19:28:00,25.1,11.6,30.32,North,5,0.0,0.0,56,0.00,,,-99.99,Meteorologica,2013-02-20 01:28:00,
2013-02-19 19:33:00,24.8,11.9,30.31,North,5,0.0,0.0,57,0.00,,,-99.99,Meteorologica,2013-02-20 01:33:00,
2013-02-19 19:38:00,24.7,12.1,30.31,North,5,0.0,0.0,58,0.00,,,-99.99,Meteorologica,2013-02-20 01:38:00,
2013-02-19 19:43:00,24.2,13.0,30.31,North,5,0.0,0.0,61,0.00,,,-99.99,Meteorologica,2013-02-20 01:43:00,
2013-02-19 19:48:00,23.4,12.1,30.31,North,5,0.0,0.0,61,0.00,,,-99.99,Meteorologica,2013-02-20 01:48:00,
2013-02-19 19:53:00,22.8,12.2,30.32,North,5,0.0,0.0,63,0.00,,,-99.99,Meteorologica,2013-02-20 01:53:00,
2013-02-19 19:58:00,22.4,12.3,30.32,North,5,0.0,0.0,64,0.00,,,-99.99,Meteorologica,2013-02-20 01:58:00,
2013-02-19 20:03:00,22.2,12.2,30.32,North,5,0.0,0.0,65,0.00,,,-99.99,Meteorologica,2013-02-20 02:03:00,
2013-02-19 20:08:00,22.0,12.3,30.32,North,5,0.0,0.0,65,0.00,,,-99.99,Meteorologica,2013-02-20 02:08:00,
2013-02-19 20:13:00,21.9,12.1,30.32,North,5,0.0,0.0,65,0.00,,,-99.99,Meteorologica,2013-02-20 02:13:00,
2013-02-19 20:18:00,21.8,11.8,30.32,North,5,0.0,0.0,64,0.00,,,-99.99,Meteorologica,2013-02-20 02:18:00,
2013-02-19 20:23:00,21.6,12.1,30.33,North,5,0.0,0.0,66,0.00,,,-99.99,Meteorologica,2013-02-20 02:23:00,
2013-02-19 20:28:00,21.3,12.3,30.33,North,5,0.0,0.0,67,0.00,,,-99.99,Meteorologica,2013-02-20 02:28:00,
2013-02-19 20:33:00,21.1,11.6,30.34,North,5,0.0,0.0,66,0.00,,,-99.99,Meteorologica,2013-02-20 02:33:00,
2013-02-19 20:38:00,20.9,11.5,30.34,North,5,0.0,0.0,66,0.00,,,-99.99,Meteorologica,2013-02-20 02:38:00,
2013-02-19 20:43:00,21.0,11.3,30.34,North,5,0.0,0.0,65,0.00,,,-99.99,Meteorologica,2013-02-20 02:43:00,
2013-02-19 20:48:00,20.9,11.4,30.35,North,5,0.0,0.0,66,0.00,,,-99.99,Meteorologica,2013-02-20 02:48:00,
2013-02-19 20:53:00,20.9,12.0,30.35,North,5,0.0,0.0,67,0.00,,,-99.99,Meteorologica,2013-02-20 02:53:00,
2013-02-19 20:58:00,20.8,12.1,30.35,North,5,0.0,0.0,68,0.00,,,-99.99,Meteorologica,2013-02-20 02:58:00,
2013-02-19 21:03:00,20.6,12.4,30.36,North,5,0.0,0.0,69,0.00,,,-99.99,Meteorologica,2013-02-20 03:03:00,
2013-02-19 21:08:00,20.4,12.1,30.36,North,5,0.0,0.0,69,0.00,,,-99.99,Meteorologica,2013-02-20 03:08:00,
2013-02-19 21:13:00,20.2,12.2,30.36,North,5,0.0,0.0,70,0.00,,,-99.99,Meteorologica,2013-02-20 03:13:00,
2013-02-19 21:18:00,19.9,11.9,30.35,North,5,0.0,0.0,70,0.00,,,-99.99,Meteorologica,2013-02-20 03:18:00,
2013-02-19 21:23:00,19.6,12.2,30.35,North,5,0.0,0.0,72,0.00,,,-99.99,Meteorologica,2013-02-20 03:23:00,
2013-02-19 21:28:00,19.6,19.6,30.35,North,5,0.0,0.0,100,0.00,,,-99.99,Meteorologica,2013-02-20 03:28:00,
2013-02-19 21:33:00,19.6,11.8,30.35,North,5,0.0,0.0,71,0.00,,,-99.99,Meteorologica,2013-02-20 03:33:00,
2013-02-19 21:38:00,19.5,11.6,30.35,North,5,0.0,0.0,70,0.00,,,-99.99,Meteorologica,2013-02-20 03:38:00,
2013-02-19 21:43:00,19.3,11.7,30.34,North,5,0.0,0.0,71,0.00,,,-99.99,Meteorologica,2013-02-20 03:43:00,
2013-02-19 21:48:00,18.8,11.2,30.35,North,5,0.0,0.0,71,0.00,,,-99.99,Meteorologica,2013-02-20 03:48:00,
2013-02-19 21:53:00,18.4,11.3,30.35,North,5,0.0,0.0,73,0.00,,,-99.99,Meteorologica,2013-02-20 03:53:00,
2013-02-19 21:58:00,18.0,11.6,30.35,North,5,0.0,0.0,75,0.00,,,-99.99,Meteorologica,2013-02-20 03:58:00,
2013-02-19 22:03:00,17.8,11.7,30.36,North,5,0.0,0.0,76,0.00,,,-99.99,Meteorologica,2013-02-20 04:03:00,
2013-02-19 22:08:00,17.8,12.1,30.35,North,5,0.0,0.0,77,0.00,,,-99.99,Meteorologica,2013-02-20 04:08:00,
2013-02-19 22:13:00,17.8,11.5,30.35,North,5,0.0,0.0,75,0.00,,,-99.99,Meteorologica,2013-02-20 04:13:00,
2013-02-19 22:18:00,17.7,11.3,30.36,North,5,0.0,0.0,75,0.00,,,-99.99,Meteorologica,2013-02-20 04:18:00,
2013-02-19 22:23:00,17.7,11.9,30.36,North,5,0.0,0.0,77,0.00,,,-99.99,Meteorologica,2013-02-20 04:23:00,
2013-02-19 22:28:00,17.5,11.5,30.37,North,5,0.0,0.0,76,0.00,,,-99.99,Meteorologica,2013-02-20 04:28:00,
2013-02-19 22:33:00,17.6,11.7,30.37,North,5,0.0,0.0,77,0.00,,,-99.99,Meteorologica,2013-02-20 04:33:00,
2013-02-19 22:38:00,17.3,11.5,30.38,North,5,0.0,0.0,77,0.00,,,-99.99,Meteorologica,2013-02-20 04:38:00,
2013-02-19 22:43:00,17.3,11.3,30.38,North,5,0.0,0.0,76,0.00,,,-99.99,Meteorologica,2013-02-20 04:43:00,
2013-02-19 22:48:00,17.2,11.0,30.38,North,5,0.0,0.0,76,0.00,,,-99.99,Meteorologica,2013-02-20 04:48:00,
2013-02-19 22:53:00,17.3,11.3,30.39,North,5,0.0,0.0,76,0.00,,,-99.99,Meteorologica,2013-02-20 04:53:00,
2013-02-19 22:58:00,17.4,11.2,30.38,North,5,0.0,0.0,76,0.00,,,-99.99,Meteorologica,2013-02-20 04:58:00,
2013-02-19 23:01:00,17.4,11.2,30.37,North,5,0.0,0.0,76,0.00,,,-99.99,Meteorologica,2013-02-20 05:01:00,
2013-02-19 23:02:00,17.4,11.1,30.37,North,5,0.0,0.0,75,0.00,,,-99.99,Meteorologica,2013-02-20 05:02:00,
2013-02-19 23:03:00,17.4,11.1,30.37,North,5,0.0,0.0,75,0.00,,,-99.99,Meteorologica,2013-02-20 05:03:00,
2013-02-19 23:08:00,17.3,10.5,30.36,North,359,1.5,5.3,73,0.00,,,-99.99,Meteorologica,2013-02-20 05:08:00,
2013-02-19 23:13:00,17.7,10.5,30.36,North,359,0.0,0.0,72,0.00,,,-99.99,Meteorologica,2013-02-20 05:13:00,
2013-02-19 23:14:00,17.7,10.2,30.36,North,359,0.0,0.0,72,0.00,,,-99.99,Meteorologica,2013-02-20 05:14:00,
2013-02-19 23:19:00,17.8,10.6,30.36,North,359,0.0,0.0,72,0.00,,,-99.99,Meteorologica,2013-02-20 05:19:00,
2013-02-19 23:24:00,17.8,10.8,30.37,North,359,0.0,0.0,73,0.00,,,-99.99,Meteorologica,2013-02-20 05:24:00,
2013-02-19 23:29:00,17.7,10.7,30.37,North,359,0.0,0.0,73,0.00,,,-99.99,Meteorologica,2013-02-20 05:29:00,
2013-02-19 23:34:00,17.6,10.4,30.37,North,359,0.0,0.0,72,0.00,,,-99.99,Meteorologica,2013-02-20 05:34:00,
2013-02-19 23:39:00,17.7,10.4,30.38,North,359,0.0,0.0,72,0.00,,,-99.99,Meteorologica,2013-02-20 05:39:00,
2013-02-19 23:44:00,17.7,10.3,30.37,North,359,0.0,0.0,72,0.00,,,-99.99,Meteorologica,2013-02-20 05:44:00,
2013-02-19 23:49:00,17.7,10.6,30.37,North,359,0.0,0.0,73,0.00,,,-99.99,Meteorologica,2013-02-20 05:49:00,
2013-02-19 23:54:00,17.6,10.5,30.37,North,359,0.0,0.0,73,0.00,,,-99.99,Meteorologica,2013-02-20 05:54:00,
2013-02-19 23:59:00,17.5,10.4,30.38,North,359,0.0,0.0,73,0.00,,,-99.99,Meteorologica,2013-02-20 05:59:00,